Flag for Algeria Weather past 2 weeks in Oran, Algeria

Now
86 °F

Clear.


Feels Like: 95 °F
Forecast: 74 / 89 °F
Wind: 16 mph from North

Location: Oran / Es Senia

Current Time: Jul 7, 2015 at 3:06:51 PM

Latest Report: Jul 7, 2015 at 2:30 PM


Visibility: 6 mi

Pressure: 29.95 "Hg

Humidity: 70%

Dew point: 75 °F

Location of OranLocation

Historic Weather in Oran — Graph

°F

Oran temperature yesterday

Maximum temperature yesterday: 88 °F (at 11:00 AM)
Minimum temperature yesterday: 72 °F (at 6:00 AM)
Average temperature yesterday: 80 °F

Past Weeks' High & Low Weather Summary

 TemperatureHumidityPressure
High97 °F (Jun 29, 12:00 PM)100% (Jun 27, 6:30 AM)30.15 "Hg (Jun 27, 6:30 AM)
Low61 °F (Jun 27, 4:30 AM)18% (Jun 23, 4:00 PM)29.89 "Hg (Jun 30, 5:00 PM)
Average78 °F68%30.02 "Hg
* Reported Jun 22 2:00 PM — Jul 7 2:00 PM, Oran, Weather by CustomWeather, © 2015

Note: Actual official high and low records may vary slightly from our data, if they occured in-between our weather recording intervals... More about our weather records

Advertising

Oran weather history for previous 24 hours

 ConditionsComfort  
Time TempWeatherWind HumidityBarometerVisibility
2:00 PM
Tue, Jul 7
86 °FClear.14 mph70%29.98 "Hg6 mi
1:30 PM88 °FClear.13 mph66%29.98 "Hg5 mi
1:00 PM88 °FClear.10 mph66%29.98 "Hg5 mi
12:30 PM88 °FClear.10 mph66%29.98 "Hg5 mi
12:00 PM88 °FClear.9 mph66%29.98 "Hg5 mi
11:30 AM88 °FClear.8 mph62%30.01 "Hg5 mi
11:00 AM86 °FClear.2 mph66%30.01 "Hg5 mi
10:30 AM86 °FClear.5 mph66%30.01 "Hg5 mi
10:00 AM82 °FClear.6 mph74%30.01 "Hg6 mi
9:30 AM81 °FClear.6 mph79%30.01 "Hg6 mi
9:00 AM81 °FSunny.8 mph79%30.01 "Hg10 mi
8:30 AM79 °FPassing clouds.9 mph84%30.01 "HgN/A
8:00 AM77 °FPassing clouds.9 mph89%30.01 "HgN/A
7:30 AM75 °FSunny.7 mph89%30.01 "Hg10 mi
7:00 AM73 °FSunny.5 mph94%29.98 "Hg10 mi
6:30 AM72 °FSunny.6 mph88%29.98 "Hg10 mi
6:00 AM72 °FSunny.6 mph88%29.98 "Hg10 mi
5:30 AM70 °FClear.6 mph94%29.98 "Hg10 mi
5:00 AM72 °FClear.6 mph94%29.98 "Hg10 mi
4:30 AM72 °FClear.5 mph94%29.98 "Hg10 mi
3:30 AM72 °FClear.No wind88%29.98 "Hg10 mi
3:00 AM72 °FClear.No wind88%29.98 "Hg10 mi
2:30 AM73 °FClear.No wind89%29.98 "Hg10 mi
2:00 AM73 °FClear.2 mph89%29.98 "Hg10 mi
1:30 AM73 °FClear.2 mph89%29.98 "Hg10 mi
1:00 AM73 °FClear.5 mph89%29.98 "Hg10 mi
12:30 AM75 °FClear.5 mph89%29.98 "Hg10 mi
12:00 AM75 °FClear.2 mph89%29.98 "Hg10 mi
11:30 PM
Mon, Jul 6
77 °FClear.2 mph89%29.98 "Hg10 mi
10:30 PM77 °FClear.3 mph94%29.98 "Hg10 mi
10:00 PM79 °FClear.2 mph89%29.98 "Hg10 mi
9:30 PM79 °FClear.7 mph89%29.98 "Hg10 mi
9:00 PM79 °FClear.7 mph89%29.98 "Hg10 mi
8:00 PM81 °FSunny.12 mph89%29.98 "Hg10 mi
7:30 PM81 °FSunny.14 mph89%29.98 "Hg10 mi
7:00 PM82 °FSunny.14 mph84%29.98 "Hg10 mi
6:30 PM84 °FSunny.14 mph79%29.98 "Hg10 mi
6:00 PM84 °FPassing clouds.14 mph79%29.98 "HgN/A
5:30 PM86 °FPassing clouds.16 mph70%29.95 "HgN/A
5:00 PM86 °FPassing clouds.18 mph70%29.95 "HgN/A
4:30 PM86 °FPassing clouds.21 mph70%29.98 "HgN/A
4:00 PM86 °FPassing clouds.18 mph70%29.98 "HgN/A
3:30 PM86 °FPassing clouds.21 mph70%29.98 "HgN/A
3:00 PM86 °FPassing clouds.14 mph70%29.98 "HgN/A
Weather by CustomWeather, © 2015

See weather overviewHow to use our weather pages